www.pogodaiklimat.ru

Погода и климат >> Архив погоды >> Мексика >> Puerto Angel


ПОГОДА в Puerto Angel

  • Прогноз погоды в Puerto Angel
  • Монитор погоды в Puerto Angel
  • Климат города

АРХИВ ПОГОДЫ в Puerto Angel

Время (UTC), дата Ветер
(напр.,м/с)
 
Видим.   Явления Облачность Т
(С)
Тd
(С)
f
(%)
Тe
(С)
Тes
(С)
Комфортность P
(гПа)
Po
(гПа)
Тmin
(С)
Tmax
(С)
R
(мм)
R24
(мм)
S
(см)
18 18.05 ЮЗ 2 30 км 1/1 600 м
[Cu med, cong]
+32.0 +26.2 71 +48 +67 опасность
перегрева
1008.6 1003.8 +27.0 +34.6
21 18.05 ЮЗ 2 30 км 1/1 600 м
[Cu med, cong]
+32.4 +26.1 69 +48 +61 опасность
перегрева
1006.8 1002.0
00 19.05 ЮЗ 2 30 км 5/3 600 м
[Cu med, cong Ac As]
+30.4 +25.9 77 +45 +46 опасность
перегрева
1006.6 1001.7 +27.0 +34.0
03 19.05 СЗ 2 30 км 4/1 600 м
[Cu med, cong Ac As]
+29.4 +25.4 79 +43 +43 опасность
перегрева
1007.2 1002.4
06 19.05 З 2 30 км 4/1 600 м
[Cu med, cong Ac As]
+29.0 +25.0 79 +42 +42 опасность
перегрева
1008.1 1003.3 +27.0 +34.0
09 19.05 СЗ 2 30 км ясно +28.4 +24.0 77 +39 +39 очень
душно
1007.7 1002.9
12 19.05 СЗ 2 30 км 8/3 600 м
[Cu med, cong Ac As Cs]
+27.0 +23.7 82 +37 +37 очень
душно
1007.1 1002.3 +25.4 +34.0
15 19.05 ЮЗ 1 30 км 8/1 600 м
[Cu med, cong Ac und Cs]
+29.6 +24.7 75 +42 +48 опасность
перегрева
1008.3 1003.4
18 19.05 ЮЗ 1 30 км 8/1 600 м
[Cu med, cong Ac und Cs]
+32.8 +25.6 66 +48 +62 опасность
перегрева
1009.0 1004.1 +25.4 +33.6
21 19.05 ЮЗ 1 30 км 8/1 600 м
[Cu med, cong Cs]
+33.4 +25.7 64 +48 +61 опасность
перегрева
1007.0 1002.1
00 20.05 ЮЗ 1 30 км 9/3 600 м
[Cu med, cong Ac und Cs]
+30.8 +25.7 74 +45 +46 опасность
перегрева
1006.6 1001.8 +25.4 +34.6
03 20.05 З 1 30 км 5/1 600 м
[Cu med, cong Ac und]
+29.0 +25.2 80 +42 +42 опасность
перегрева
1007.9 1003.1
06 20.05 СЗ 1 30 км 6/1 600 м
[Cu med, cong Cs]
+28.0 +24.8 83 +40 +40 очень
душно
1009.1 1004.3 +25.4 +34.6
09 20.05 С 1 30 км 8/1 600 м
[Cu med, cong Cs]
+27.0 +24.3 85 +38 +38 очень
душно
1008.2 1003.3
12 20.05 СВ 1 30 км 8/1 600 м
[Cu med, cong Ac und Cs]
+26.0 +23.5 86 +35 +35 очень
душно
1007.1 1002.2 +24.8 +34.6
15 20.05 Ю 1 30 км 6/1 600 м
[Cu med, cong Cs]
+30.4 +25.0 73 +44 +53 опасность
перегрева
1008.2 1003.3
18 20.05 ЮЗ 1 30 км 5/1 600 м
[Cu med, cong Cs]
+33.4 +25.7 64 +48 +69 опасность
перегрева
1008.4 1003.5 +24.8 +34.0
21 20.05 ЮЗ 1 30 км 9/3 600 м
[Cu med, cong Ac und Cs]
+34.0 +26.1 64 +50 +57 опасность
перегрева
1006.7 1001.8
00 21.05 З 1 30 км 10/3 600 м
[Cu med, cong Ac und Cs]
+31.0 +26.5 77 +47 +48 опасность
перегрева
1006.2 1001.4 +24.8 +35.4
03 21.05 С 1 30 км 9/3 600 м
[Cu med, cong Ac und]
+29.0 +24.1 75 +40 +40 очень
душно
1007.6 1002.8
06 21.05 С 1 30 км 1/1 600 м
[Cu med, cong]
+28.0 +23.9 78 +39 +39 очень
душно
1008.8 1004.0 +24.8 +35.4
09 21.05 С 1 30 км 6/1 600 м
[Cu med, cong Cs]
+27.2 +22.8 77 +36 +36 очень
душно
1008.5 1003.6
12 21.05 СВ 1 30 км 8/1 600 м
[Cu med, cong Ac trans Cs]
+26.6 +23.0 81 +36 +36 очень
душно
1007.3 1002.4 +25.0 +35.4
15 21.05 В 4 30 км 4/1 600 м
[Cu med, cong Ac und Cs]
+30.2 +24.8 73 +43 +48 опасность
перегрева
1010.4 1005.5
18 21.05 ЮВ 6 30 км 8/3 600 м
[Cb cap Cs]
+33.0 +26.4 68 +49 +55 опасность
перегрева
1010.1 1005.3 +25.0 +33.4
21 21.05 ЮВ 5 30 км 9/4 600 м
[Cb cap Cs]
+32.4 +26.3 70 +49 +52 опасность
перегрева
1008.9 1004.0
00 22.05 ЮВ 4 30 км 10/6 600 м
[Cb cap Ci ing]
+30.2 +26.0 78 +45 +45 опасность
перегрева
1008.2 1003.3 +25.0 +34.0
03 22.05 ЮВ 4 20 км 10/6 600 м
[Cb cap As op]
+30.0 +25.7 78 +45 +45 опасность
перегрева
1010.1 1005.2
06 22.05 С 2 20 км {гроза, дождь} 10/8 600 м
[Cb cap As op]
+26.6 +25.3 93 +39 +39 очень
душно
1011.3 1006.5 4
09 22.05 СВ 1 20 км 10/6 600 м
[Cb cap As op]
+26.4 +25.1 93 +38 +38 очень
душно
1010.3 1005.4
12 22.05 СВ 2 30 км {гроза, дождь} 8/3 600 м
[Cb cap Ac cuf Cs]
+26.0 +25.2 95 +37 +37 очень
душно
1010.0 1005.1 7
15 22.05 В 2 30 км 8/3 600 м
[Cu med, cong Ac As Cs]
+26.6 +24.9 90 +38 +42 очень
душно
1011.5 1006.6
18 22.05 ЮВ 3 30 км 10/3 600 м
[Cu med, cong Ac As Cs]
+30.0 +25.5 77 +44 +50 опасность
перегрева
1010.0 1005.9 +25.4 +34.0
21 22.05 ЮВ 2 30 км 9/1 600 м
[Cu med, cong Ac As Cs]
+30.0 +25.5 77 +44 +51 опасность
перегрева
1010.1 1005.2
00 23.05 В 2 30 км 10/3 600 м
[Cu med, cong Ac As Cs]
+28.6 +24.8 80 +41 +41 опасность
перегрева
1010.0 1005.1 +25.4 +31.6
03 23.05 СВ 2 30 км 9/1 600 м
[Cu med, cong Ac As Cs]
+28.0 +24.2 80 +39 +39 очень
душно
1010.6 1005.7
09 23.05 СВ 2 30 км ясно +27.0 +22.3 75 +35 +35 очень
душно
1010.8 1005.9
12 23.05 СВ 2 30 км ясно +27.0 +22.0 74 +35 +35 очень
душно
1010.2 1005.3 +25.6 +31.6
15 23.05 ЮВ 1 30 км 5/0
[Cs]
+30.8 +23.7 66 +42 +52 опасность
перегрева
1010.7 1005.8
18 23.05 В 1 30 км 8/1 600 м
[Cu med, cong Cs]
+33.0 +25.8 66 +48 +68 опасность
перегрева
1010.6 1006.0 +25.3 +34.0
21 23.05 В 1 30 км 9/3 600 м
[Cu med, cong Ac und Cs]
+34.0 +25.5 61 +48 +55 опасность
перегрева
1009.5 1004.7
00 24.05 В 1 30 км 9/1 600 м
[Cu med, cong Ac trans Cs]
+31.0 +24.2 67 +43 +43 опасность
перегрева
1008.1 1003.2 +25.6 +35.0
03 24.05 В 1 30 км 6/1 600 м
[Cu med, cong Cs]
+29.2 +24.3 75 +41 +41 опасность
перегрева
1009.7 1004.9
06 24.05 С 1 30 км 4/1 600 м
[Cu med, cong Cs]
+28.0 +23.9 78 +39 +39 очень
душно
1010.4 1005.6 +25.6 +35.0
09 24.05 С 1 30 км 5/1 600 м
[Cu med, cong Cs]
+27.4 +23.3 78 +37 +37 очень
душно
1009.6 1004.7
12 24.05 С 1 30 км 5/1 600 м
[Cu med, cong Cs]
+26.6 +23.0 81 +36 +36 очень
душно
1008.3 1003.5 +24.4 +35.0
15 24.05 В 1 30 км 6/1 600 м
[Cu med, cong Cs]
+30.4 +23.3 66 +41 +50 опасность
перегрева
1009.2 1004.3
18 24.05 ЮВ 1 30 км 8/1 600 м
[Cu med, cong Cs]
+32.6 +24.8 64 +46 +65 опасность
перегрева
1010.0 1005.1 +24.4 +33.8
21 24.05 ЮВ 1 30 км 9/3 600 м
[Cu med, cong Ac und Cs]
+33.0 +25.6 65 +48 +54 опасность
перегрева
1008.7 1003.9
00 25.05 В 1 30 км 9/3 600 м
[Cu med, cong Ac und Cs]
+30.0 +24.0 70 +41 +42 опасность
перегрева
1007.3 1002.4 +24.4 +35.0
03 25.05 СВ 1 30 км слабая морось 10/3 600 м
[Cu med, cong Ac und]
+28.8 +23.6 74 +39 +39 очень
душно
1009.0 1004.2 0.3
09 25.05 С 1 30 км слабая морось {дождь} 10/4 600 м
[Cb cap Ac cuf]
+26.0 +23.8 88 +36 +36 очень
душно
1009.6 1004.7 19
12 25.05 З 1 30 км дождь 10/5 600 м
[Cb cap Ac cuf]
+25.0 +24.2 95 +34 +34 очень
душно
1009.3 1004.4 82
15 25.05 С 3 30 км {дождь, морось} 10/1 600 м
[Cu med, cong Ac As]
+25.2 +23.5 90 +34 +36 очень
душно
1010.9 1005.9 11

 

Местоположение метеостанции Puerto Angel (Мексика): широта 15.68 долгота -96.48 высота над уровнем моря 46 м.

В архиве по умолчанию представлена погода в Puerto Angel за последнюю неделю. Архивные данные за месяц целиком и за предыдущие месяцы, начиная с января 2011 года, Вы можете получить, выбрав интересующий диапазон дат из раскрывающегося списка и нажав кнопку "Ввод!".

Внимание! Время в таблицах - всемирное. Для получения местного времени необходимо прибавить поправку, которая в Puerto Angel равна -6 ч.

Смотрите также архив погоды в соседних городах и на ближайших метеорологических станциях:

Погода в Salina Cruz (Мексика) (149 км)
Погода в Oaxaca (Мексика) (154 км)
Погода в Huajuapan De Leon (Мексика) (273 км)
Погода в Arriaga (Мексика) (283 км)
Погода в Coatzacoalcos (Мексика) (350 км)
Погода в Orizaba Ver. (Мексика) (359 км)
Погода в Cordoba-In-Veracruz (Мексика) (361 км)
Погода в Tuxtla Gutierrez (Мексика) (377 км)
Погода в Chilpancingo (Мексика) (383 км)
Погода в Hacienda Ylang (Мексика) (388 км)

Пояснения к столбцам:

Ветер - указаны скорость ветра в м/с - средняя за 10 мин, порывы в срок и между сроками (в фигурных скобках) и направление, откуда дует ветер: С - северный, СВ - северо-восточный, В - восточный, ЮВ - юго-восточный, Ю - южный, ЮЗ - юго-западный, З - западный, СЗ - северо-западный.
Видимость - горизонтальная дальность видимости в метрах или километрах. При видимости от 1 до 10 км при отсутствии осадков обычно наблюдается дымка, при ухудшении видимости до 1 км и менее - туман. В сухую погоду видимость может ухудшаться дымом, пылью или мглою.
Явления - указаны атмосферные явления, наблюдавшиеся в срок или в последний час перед сроком; фигурными скобками обозначены явления, наблюдавшиеся между сроками (за 1-3 часа до срока); квадратными скобками обозначены град или гололедные отложения с указанием их диаметра в мм.
Облачность - указаны через наклонную черту общая и нижняя облачность в баллах и высота нижней границы облаков в метрах; квадратными скобками обозначены формы облаков: Ci - перистые, Cs - перисто-слоистые, Cc - перисто-кучевые, Ac - высококучевые, As - высокослоистые, Sc - слоисто-кучевые, Ns - слоисто-дождевые, Cu - кучевые, Cb - кучево-дождевые. Подробнее классификацию облаков см. в Атласе облаков (PDF).
T - Температура воздуха - температура, измеренная на высоте 2 м над землей.
Td - Температура точки росы - температура, при понижении до которой содержащийся в воздухе водяной пар достигнет насыщения.
f - Относительная влажность воздуха - влажноcть воздуха, измеренная на высоте 2 м над землей.
Te - Эффективная температура - температура, которую ощущает одетый по сезону человек в тени. Характеристика душности погоды. При расчете учитывается влияние влажности воздуха и скорости ветра на теплоощущения человека.
Tes - Эффективная температура на солнце - температура, которую ощущает человек, с поправкой на солнечный нагрев. Характеристика знойности погоды. Зависит от высоты солнца над горизонтом, облачности и скорости ветра. Ночью, в пасмурную погоду, а также при ветре 12 м/с и более поправка равна нулю.
P - Атмосферное давление - приведенное к уровню моря атмосферное давление.
Po - Атмосферное давление - измеренное на уровне метеостанции атмосферное давление.
Tmin - Минимальная температура - минимум температуры воздуха на высоте 2 м над землей.
Tmax - Максимальная температура - максимум температуры воздуха на высоте 2 м над землей.
R - Количество осадков - Количество выпавших осадков за период времени, мм. При наведении курсора мыши на число - период времени, за который выпало указанное количество осадков.
R24 - Количество осадков - Количество выпавших осадков за 24 часа, мм.
S - Снежный покров - Высота снежного покрова, см. При наведении курсора мыши на число - состояние снежного покрова и степень покрытия местности в баллах.